Location: Ebenezer
(18.2167°N, 63.0667°W)
Time: 02:10:14
(UTC+00:00)

Meteor 2-12 Rocket - Pass Details

Date: 26 January 2020
Orbit: 936 x 957 km, 82.5° (Epoch: 25 February)

Event Time Altitude Azimuth Distance (km) Brightness Sun altitude
Rises 22:22:47 0° 176° (S) 3,588 7.6 -5.3°
Reaches altitude 10° 22:25:17 10° 172° (S) 2,643 6.9 -5.8°
Maximum altitude 22:31:13 62° 93° (E) 1,044 4.5 -7.2°
Drops below altitude 10° 22:37:10 10° 13° (NNE) 2,643 6.5 -8.5°
Sets 22:39:40 0° 10° (N) 3,589 7.2 -9.1°
